[[{"header":{"parameterUnit":"m.s-1","parameterCategory":1,"la1":30.2991,"la2":30.254,"lo1":-89.0895,"lo2":-89.0444,"dy":0.0017,"dx":0.0017,"nx":28,"ny":28,"refTime":"2024-06-29T03:00:00:Z","depth":0,"parameterNumber":2,"parameterNumberName":"U-component_of_WINDS"},"data":[0,0,0,0,0,0,0,0,0,0,0,0,0,0,0,0,0,0,0,0,0,0,0,0,0,0,0,0,0,0,0,0,0,0,0,0,0,0,0,0,0,0,0,0,0,0,0,0,0,0,0,0,0,0,0,0,0,0,3.9217,3.9218,0,3.936,3.9362,3.9363,3.939,3.9388,3.9387,3.9386,3.9533,3.9538,3.9543,0,0,0,0,0,0,0,0,0,0,0,0,0,3.8967,3.8972,3.9217,3.9218,3.922,3.936,3.9362,3.9364,3.939,3.9388,3.9387,3.9386,3.9532,3.9538,3.9544,0,0,0,0,0,0,0,0,0,0,0,0,0,3.909,3.8973,3.9216,3.925,3.9255,3.9359,3.9362,3.9364,3.939,3.9388,3.9387,3.9385,3.953,3.9537,3.9545,3.9626,0,0,3.9567,3.9571,0,0,0,0,0,0,0,0,3.9083,3.9099,3.9243,3.9248,3.9253,3.9355,3.9328,3.9452,3.9391,3.9339,3.9386,3.9384,3.9476,3.9487,3.9518,3.9633,3.9639,3.9568,3.9573,3.9576,3.9578,0,0,0,0,0,0,0,3.9074,3.9093,3.9273,3.9245,3.9251,3.9259,3.9274,3.9351,3.9415,3.9343,3.9345,3.9362,3.9478,3.9511,3.9522,3.9641,3.9568,3.9575,3.9579,3.9582,3.983,3.9832,0,0,0,0,0,0,3.906,3.9085,3.9269,3.9278,3.9162,3.9265,3.9282,3.9324,3.9414,3.9426,3.9363,3.9363,3.9499,3.9513,3.9527,3.9628,3.9576,3.9583,3.9587,3.9828,3.9831,3.9833,0,0,0,0,0,0,3.9054,3.9076,3.9263,3.9182,3.9207,3.9271,3.9318,3.9328,3.9361,3.943,3.9441,3.9385,3.9498,3.9516,3.9601,3.9633,3.9586,3.9593,3.9826,3.9829,3.9832,3.983,0,0,0,0,0,0,3.9047,3.9073,3.9104,3.9183,3.9211,3.9334,3.932,3.9332,3.9374,3.9374,3.9453,3.9465,3.9498,3.959,3.9609,3.9643,3.9599,3.9823,3.9827,3.9831,3.9828,3.9833,3.9837,0,0,0,0,0,3.9038,3.9098,3.9106,3.9128,3.9251,3.9336,3.9352,3.9389,3.9376,3.9408,3.9453,3.9462,3.9627,3.9598,3.962,3.9657,3.9821,3.9826,3.9831,3.9825,3.9832,3.9837,0,0,0,0,0,0,3.9022,3.9109,3.9118,3.9206,3.9263,3.934,3.9381,3.9395,3.9457,3.9455,3.9499,3.9517,3.9599,3.9637,3.9603,3.9741,3.9724,3.9733,3.9712,3.9719,3.9724,3.9712,3.9605,0,0,0,0,0,3.9028,3.909,3.9163,3.9233,3.9262,3.9317,3.9355,3.9379,3.944,3.9464,3.9515,3.9574,3.964,3.9682,3.9746,3.9834,3.9852,3.987,3.9875,3.9879,3.9886,3.9936,3.9945,3.9849,3.9849,3.9849,0,0,3.9042,3.9098,3.9134,3.9231,3.9279,3.9341,3.9337,3.9403,3.945,3.9475,3.9557,3.9597,3.9666,3.9753,3.9794,3.9787,3.9917,3.9885,3.9887,3.9892,3.9941,3.995,3.9958,3.9852,3.9851,3.9851,0,0,3.91,3.9148,3.9212,3.926,3.9332,3.9368,3.9384,3.9459,3.9486,3.957,3.959,3.9647,3.9759,3.9808,3.9847,3.9925,3.9936,3.9945,3.997,4.0018,4.0025,4.0032,4.0059,4.0069,3.9952,3.9952,3.9952,0,3.9108,3.9203,3.9243,3.9309,3.9351,3.9377,3.9442,3.9487,3.9576,3.9605,3.9597,3.9738,3.9786,3.9885,3.9904,3.9936,3.9954,3.9935,4.0021,4.0028,4.0035,4.0062,4.0072,3.9953,3.9953,3.9953,3.9953,0,3.921,3.9276,3.9319,3.9404,3.9452,3.9517,3.9567,3.9611,3.9631,3.9669,3.9755,3.9814,3.9891,3.9917,3.9937,4.0019,4.0012,4.0012,3.9995,4.0044,4.007,4.008,3.9953,3.9953,3.9953,3.9953,0,0,3.9258,3.9366,3.9381,3.9421,3.9503,3.9555,3.9622,3.9697,3.9733,3.9795,3.9852,3.9947,3.9948,3.9992,4.0019,4.0062,4.0119,4.0057,4.0059,4.0065,4.0212,4.021,4.0221,4.0128,4.013,4.0132,4.0206,0,3.9324,3.9444,3.9483,3.9582,3.9644,3.9671,3.9729,3.9786,3.9824,3.9882,3.9924,3.999,3.9987,4.0014,4.0057,4.0103,4.0149,4.0099,4.0181,4.0184,4.0161,4.0235,4.0233,4.03,4.0216,4.0218,4.0219,0,3.9417,3.948,3.9585,3.9661,3.9688,3.974,3.9812,3.9868,3.9934,3.9958,4.0009,4.0033,4.0105,4.0086,4.0186,4.015,4.0187,4.0215,4.0219,4.0226,4.0203,4.0243,4.0322,4.0331,4.0236,4.0234,4.0233,0,3.944,3.9552,3.9629,3.9663,3.9753,3.9788,3.9828,3.9892,3.9935,3.9999,4.0027,4.0099,4.0138,4.0193,4.0236,4.0218,4.0332,4.0316,4.0354,4.0352,4.0374,4.0372,4.0459,4.0401,4.0401,4.0401,4.04,0,3.9509,3.9572,3.9641,3.9688,3.9761,3.9806,3.9876,3.9917,3.9975,4.0031,4.006,4.0112,4.0166,4.0226,4.0261,4.0338,4.0355,4.0377,4.0385,4.0374,4.0371,4.0397,4.0392,4.0403,4.0403,4.0402,4.0402,0,3.9546,3.9594,3.9681,3.976,3.9781,3.9831,3.9899,3.9946,3.9986,4.0057,4.0077,4.0139,4.0211,4.026,4.0353,4.0376,4.0459,4.0467,4.0437,4.044,4.0474,4.047,4.0579,4.0596,4.0528,4.0529,4.0529,0,3.9585,3.9634,3.9719,3.9759,3.9798,3.9862,3.9906,3.9954,3.9998,4.0078,4.0116,4.0191,4.0252,4.0366,4.042,4.0492,4.0501,4.0534,4.0511,4.0498,4.05,4.0495,4.05,4.0537,4.0537,4.0538,4.0538,0,3.9649,3.9672,3.9734,3.9806,3.9858,3.9916,3.9975,4.0006,4.0064,4.0113,4.0188,4.0235,4.033,4.0404,4.048,4.0522,4.0539,4.0545,4.0558,4.0545,4.0525,4.0535,4.0444,4.0542,4.0542,4.0541,4.0541,4.0541,3.9688,3.9733,3.98,3.9869,3.9919,3.9973,4.0022,4.0068,4.0131,4.0211,4.0236,4.0313,4.038,4.0485,4.0527,4.0589,4.0586,4.0603,4.0608,4.0611,4.061,4.0517,4.0603,4.0603,4.0603,4.0603,4.0603,0,3.9753,3.9798,3.9861,3.9942,3.9997,4.001,4.0077,4.0121,4.0189,4.0249,4.0309,4.0395,4.0467,4.0527,4.0602,4.0639,4.0649,4.0657,4.0654,4.0663,4.0609,4.059,4.0648,4.0647,4.0647,4.0647,4.0647,4.0647,3.9793,3.987,3.99,4.0003,4.0048,4.0123,4.016,4.0211,4.0259,4.0353,4.0413,4.0452,4.0513,4.0592,4.0659,4.0675,4.0701,4.0706,4.0724,4.0672,4.0667,4.0662,4.0644,4.0712,4.0712,4.0772,4.0773,4.0773]},{"header":{"parameterUnit":"m.s-1","parameterCategory":1,"la1":30.2991,"la2":30.254,"lo1":-89.0895,"lo2":-89.0444,"dy":0.0017,"dx":0.0017,"nx":28,"ny":28,"refTime":"2024-06-29T03:00:00:Z","depth":0,"parameterNumber":3,"parameterNumberName":"V-component_of_WINDS"},"data":[0,0,0,0,0,0,0,0,0,0,0,0,0,0,0,0,0,0,0,0,0,0,0,0,0,0,0,0,0,0,0,0,0,0,0,0,0,0,0,0,0,0,0,0,0,0,0,0,0,0,0,0,0,0,0,0,0,0,4.822,4.8222,0,4.8379,4.838,4.8382,4.8452,4.8452,4.8452,4.8451,4.8605,4.8609,4.8614,0,0,0,0,0,0,0,0,0,0,0,0,0,4.7971,4.7975,4.822,4.8222,4.8224,4.8378,4.8381,4.8383,4.8452,4.8452,4.8452,4.8451,4.8604,4.8609,4.8614,0,0,0,0,0,0,0,0,0,0,0,0,0,4.8099,4.7976,4.822,4.8278,4.8284,4.8378,4.8381,4.8383,4.8452,4.8452,4.8451,4.8451,4.8602,4.8608,4.8615,4.866,0,0,4.8634,4.8637,0,0,0,0,0,0,0,0,4.8091,4.8108,4.8267,4.8274,4.8281,4.8396,4.8349,4.8476,4.8452,4.8388,4.8451,4.8451,4.8535,4.8547,4.8577,4.8667,4.8674,4.8635,4.8639,4.8642,4.8643,0,0,0,0,0,0,0,4.8083,4.8101,4.8283,4.8269,4.8278,4.8293,4.8311,4.8373,4.8461,4.8394,4.8399,4.8417,4.8539,4.8571,4.8581,4.8676,4.8635,4.864,4.8644,4.8647,4.8814,4.8814,0,0,0,0,0,0,4.8065,4.8094,4.8278,4.8287,4.8184,4.8298,4.8318,4.8359,4.8461,4.8476,4.8417,4.842,4.856,4.8574,4.8587,4.8648,4.8642,4.8648,4.8651,4.8813,4.8814,4.8814,0,0,0,0,0,0,4.806,4.8081,4.8271,4.8192,4.8218,4.8303,4.8348,4.8362,4.8394,4.8479,4.8494,4.8434,4.856,4.8578,4.8643,4.8655,4.865,4.8656,4.8812,4.8813,4.8814,4.877,0,0,0,0,0,0,4.8052,4.8079,4.8098,4.8192,4.8222,4.8326,4.8349,4.8366,4.8406,4.8411,4.8499,4.8513,4.8561,4.8633,4.8649,4.8663,4.8661,4.8812,4.8813,4.8814,4.8771,4.877,4.8768,0,0,0,0,0,4.8043,4.8077,4.8099,4.8121,4.8248,4.8327,4.8343,4.8401,4.8407,4.8427,4.8481,4.851,4.8651,4.8639,4.8658,4.8674,4.8811,4.8812,4.8814,4.8772,4.877,4.8768,0,0,0,0,0,0,4.7979,4.8091,4.8116,4.8182,4.8245,4.8338,4.8365,4.8397,4.8457,4.8458,4.8525,4.8544,4.8603,4.8645,4.8629,4.8724,4.8733,4.8738,4.8695,4.8694,4.8693,4.8681,4.8667,0,0,0,0,0,4.7973,4.803,4.8123,4.8173,4.8203,4.8278,4.8315,4.8354,4.842,4.8446,4.8506,4.8567,4.8625,4.8662,4.872,4.8778,4.8798,4.8798,4.8797,4.8795,4.8799,4.8834,4.8835,4.8819,4.8819,4.8818,0,0,4.796,4.8029,4.806,4.8162,4.8215,4.827,4.83,4.8357,4.8398,4.8454,4.852,4.8565,4.8638,4.87,4.873,4.8737,4.8808,4.8797,4.8795,4.88,4.8835,4.8837,4.8838,4.8819,4.8819,4.8819,0,0,4.7966,4.8023,4.8072,4.8126,4.8207,4.8258,4.8269,4.8359,4.8392,4.846,4.8504,4.8552,4.8651,4.8702,4.874,4.8767,4.8796,4.8784,4.8777,4.881,4.8811,4.8813,4.8823,4.8826,4.8787,4.8787,4.8787,0,4.7939,4.8028,4.8092,4.8148,4.8191,4.8248,4.8297,4.8344,4.8439,4.8467,4.8474,4.8601,4.8653,4.8728,4.8736,4.8765,4.8779,4.8774,4.8806,4.8808,4.8811,4.8821,4.8825,4.8785,4.8785,4.8786,4.8786,0,4.7991,4.8051,4.808,4.8175,4.8221,4.8272,4.8343,4.8382,4.8418,4.8467,4.8535,4.8601,4.8674,4.8695,4.8728,4.8775,4.8777,4.8794,4.8804,4.8809,4.882,4.8825,4.8782,4.8783,4.8784,4.8784,0,0,4.7959,4.8091,4.8101,4.8145,4.824,4.8287,4.8341,4.8416,4.8448,4.8511,4.8558,4.8641,4.8659,4.8703,4.8743,4.8772,4.879,4.8786,4.8788,4.8785,4.8846,4.8833,4.8837,4.881,4.8811,4.8812,4.884,0,4.7979,4.8082,4.8142,4.8219,4.8275,4.8331,4.8378,4.844,4.8487,4.8541,4.8592,4.865,4.8669,4.8696,4.8727,4.8781,4.8803,4.878,4.8853,4.8854,4.8833,4.8842,4.8828,4.8852,4.8845,4.8846,4.8846,0,4.8015,4.8082,4.8165,4.8256,4.8282,4.8323,4.8398,4.8448,4.852,4.8552,4.8602,4.8643,4.8701,4.8707,4.8787,4.877,4.8803,4.8834,4.8837,4.8845,4.8851,4.8852,4.8861,4.8864,4.8854,4.8853,4.8852,0,4.7984,4.8095,4.816,4.8196,4.8303,4.8331,4.8376,4.8448,4.849,4.8554,4.8581,4.865,4.8687,4.8738,4.8796,4.8795,4.887,4.8881,4.8898,4.8896,4.8911,4.8909,4.8926,4.8932,4.8932,4.8932,4.8931,0,4.8,4.8049,4.8148,4.8188,4.8244,4.8313,4.8366,4.8415,4.8479,4.8528,4.8579,4.8623,4.8697,4.875,4.8795,4.8855,4.8871,4.8898,4.8909,4.8894,4.889,4.8916,4.8916,4.8933,4.8932,4.8932,4.8932,0,4.7975,4.8044,4.8119,4.8215,4.8241,4.8278,4.836,4.84,4.8451,4.8512,4.853,4.8609,4.8675,4.8738,4.8824,4.8855,4.8914,4.8929,4.8891,4.8897,4.8911,4.8909,4.8945,4.8953,4.8953,4.8953,4.8952,0,4.7981,4.8021,4.8123,4.8161,4.8207,4.8267,4.8311,4.8379,4.8423,4.8509,4.8538,4.8608,4.8667,4.8769,4.8832,4.8899,4.8916,4.8924,4.8926,4.891,4.8917,4.8914,4.8918,4.8922,4.8922,4.8921,4.8921,0,4.7983,4.8016,4.8079,4.8155,4.8207,4.8269,4.8332,4.8359,4.8439,4.8485,4.8555,4.8601,4.8692,4.876,4.8835,4.8879,4.8913,4.892,4.8928,4.8912,4.8889,4.8903,4.8887,4.8919,4.8919,4.8919,4.892,4.892,4.7975,4.8013,4.8092,4.8161,4.8217,4.8275,4.8318,4.8376,4.8436,4.8518,4.8554,4.8624,4.8695,4.8799,4.8843,4.8898,4.8906,4.8916,4.8919,4.8921,4.8918,4.8881,4.8911,4.8911,4.8911,4.8911,4.8912,0,4.7981,4.8035,4.8098,4.8187,4.8241,4.8272,4.8344,4.8386,4.8448,4.8513,4.8572,4.8652,4.8719,4.8789,4.886,4.889,4.8908,4.8906,4.8905,4.8915,4.8906,4.8893,4.8891,4.8891,4.8891,4.8891,4.8891,4.8891,4.799,4.8058,4.81,4.8195,4.8249,4.8321,4.8359,4.8413,4.8466,4.8554,4.8611,4.8658,4.8725,4.8801,4.8864,4.8882,4.8906,4.89,4.8923,4.8914,4.8915,4.8916,4.8904,4.8905,4.8905,4.8928,4.8928,4.8928]}]]